VE3KSR Weather Reports


Display with metric or nautical units.
time (UTC)temp
F
wind
direction
speed
MPH
gust
MPH
rain 1hr
in
rain 24hr
in
rain mn
in
humidity
%
barometer
mb
20181015190031 44 283 24.0 34.0 4.80 0.00 0.00 45 1015.3
20181015185531 44 274 28.0 40.0 4.80 0.00 0.00 4 1015.5
20181015185031 45 284 25.0 31.0 4.80 0.00 0.00 22 1015.7
20181015184531 45 314 26.0 34.0 4.80 0.00 0.00 2 1015.6
20181015184034 45 277 25.0 33.0 4.80 0.00 0.00 8 1015.9
20181015183532 45 311 23.0 30.0 4.80 0.00 0.00 7 1016.1
20181015183031 45 293 22.0 28.0 4.80 0.00 0.00 9 1016.6
20181015182532 46 277 22.0 29.0 4.80 0.00 0.00 7 1016.7
20181015182031 46 295 19.0 25.0 4.80 0.00 0.00 4 1017.2
20181015181531 46 277 22.0 28.0 4.80 0.00 0.00 2 1017.3
20181015181031 46 290 21.0 28.0 4.80 0.00 0.00 3 1017.2
20181015180532 46 288 21.0 26.0 4.80 0.00 0.00 0 1017.2
20181015180031 46 283 21.0 30.0 4.80 0.00 0.00 7 1017.3
20181015175532 46 287 24.0 31.0 4.80 0.00 0.00 6 1017.1
20181015175031 46 295 20.0 25.0 4.80 0.00 0.00 3 1017.1
20181015174532 46 269 23.0 30.0 4.80 0.00 0.00 0 1017.3
20181015174032 46 285 25.0 33.0 4.80 0.00 0.00 0 1017.2
20181015173532 46 283 24.0 32.0 4.80 0.00 0.00 1 1017.3
20181015173032 46 294 26.0 33.0 4.80 0.00 0.00 8 1017.4
20181015172532 46 271 23.0 31.0 4.80 0.00 0.00 21 1017.4
20181015172032 46 280 30.0 39.0 4.80 0.00 0.00 52 1017.5
20181015171532 46 281 26.0 34.0 4.80 0.00 0.00 0 1017.3
20181015171032 46 287 25.0 30.0 4.80 0.00 0.00 62 1017.3
20181015170532 46 283 25.0 32.0 4.80 0.00 0.00 71 1017.4
20181015170032 47 285 28.0 37.0 4.80 0.00 0.00 47 1017.2
20181015165532 47 283 24.0 34.0 4.80 0.00 0.00 0 1017.1
20181015165032 47 287 30.0 36.0 4.80 0.00 0.00 24 1016.9
20181015164532 47 295 28.0 38.0 4.80 0.00 0.00 32 1016.9
20181015164034 47 277 24.0 34.0 4.80 0.00 0.00 56 1016.8
20181015163532 47 283 25.0 36.0 4.80 0.00 0.00 67 1016.8
20181015163032 47 283 28.0 35.0 4.80 0.00 0.00 36 1016.7
20181015162532 47 274 25.0 34.0 4.80 0.00 0.00 1 1016.8
20181015162032 47 288 31.0 39.0 4.80 0.00 0.00 41 1016.5
20181015161532 48 281 21.0 33.0 4.80 0.00 0.00 84 1016.7
20181015161032 48 291 19.0 26.0 4.80 0.00 0.00 85 1016.6
20181015160532 48 290 20.0 28.0 4.80 0.00 0.00 86 1016.6
20181015160032 48 271 20.0 27.0 4.80 0.00 0.00 53 1016.5
20181015155532 48 288 20.0 28.0 4.80 0.00 0.00 70 1016.3
20181015155032 48 293 19.0 24.0 4.80 0.00 0.00 83 1016.5
20181015154531 48 276 19.0 26.0 4.80 0.00 0.00 88 1016.5
20181015154032 48 291 18.0 24.0 4.80 0.00 0.00 88 1016.6
20181015153534 48 293 17.0 24.0 4.80 0.00 0.00 88 1016.5
20181015153032 48 290 17.0 22.0 4.80 0.00 0.00 87 1016.6
20181015152533 48 288 18.0 22.0 4.80 0.00 0.00 85 1016.2
20181015152035 48 283 17.0 21.0 4.80 0.00 0.00 89 1016.1
20181015151532 47 284 17.0 24.0 4.80 0.00 0.00 79 1016.3
20181015151032 47 288 18.0 23.0 4.80 0.00 0.00 77 1016.4
20181015150533 47 277 16.0 21.0 4.80 0.00 0.00 71 1016.2
20181015150032 47 290 16.0 21.0 4.80 0.00 0.00 75 1016.3
20181015145546 47 283 17.0 25.0 4.80 0.00 0.00 79 1016.5
20181015145032 47 293 15.0 20.0 4.80 0.00 0.00 82 1016.3
20181015144532 47 300 19.0 24.0 4.80 0.00 0.00 86 1016.1
20181015144032 47 288 16.0 20.0 4.80 0.00 0.00 87 1016.4
20181015143532 47 291 16.0 20.0 4.80 0.00 0.00 88 1016.3
20181015143032 47 291 13.0 18.0 4.80 0.00 0.00 89 1016.2
20181015142532 47 287 13.0 16.0 4.80 0.00 0.00 86 1016.3
20181015142033 47 284 14.0 18.0 4.80 0.00 0.00 85 1016.3
20181015141533 47 287 13.0 17.0 4.80 0.00 0.00 88 1016.4
20181015141032 47 293 12.0 17.0 4.80 0.00 0.00 89 1016.2
20181015140532 47 290 11.0 17.0 4.80 0.00 0.00 89 1016.1
20181015140032 47 291 13.0 15.0 4.80 0.00 0.00 89 1016.1
20181015135532 46 290 12.0 16.0 4.80 0.00 0.00 27 1016.1
20181015135032 46 283 13.0 16.0 4.80 0.00 0.00 88 1016.1
20181015134532 46 294 11.0 14.0 4.80 0.00 0.00 82 1016.4
20181015134033 46 293 12.0 17.0 4.80 0.00 0.00 84 1016.5
20181015133532 46 298 11.0 13.0 4.80 0.00 0.00 83 1016.8
20181015133032 46 297 11.0 13.0 4.80 0.00 0.00 84 1017.3
20181015132532 46 294 10.0 13.0 4.80 0.00 0.00 82 1017.4
20181015132033 46 295 7.0 9.0 4.80 0.00 0.00 79 1017.6
20181015131532 46 264 8.0 11.0 4.80 0.00 0.00 79 1017.6
20181015131032 46 250 8.0 10.0 4.80 0.00 0.00 78 1017.8
20181015130532 46 253 9.0 10.0 4.80 0.00 0.00 69 1017.7
20181015130032 46 243 8.0 9.0 4.80 0.00 0.00 66 1017.8
20181015125532 46 246 7.0 8.0 4.80 0.00 0.00 65 1017.7
20181015125032 46 243 7.0 8.0 4.80 0.00 0.00 64 1017.7
20181015124533 46 245 6.0 8.0 4.80 0.00 0.00 63 1017.7
20181015124033 46 240 6.0 7.0 4.80 0.00 0.00 60 1017.8
20181015123533 46 240 7.0 10.0 4.80 0.00 0.00 52 1017.7
20181015123032 46 250 7.0 8.0 4.80 0.00 0.00 46 1017.8
20181015122532 46 0 0.0 0.0 4.80 0.00 0.00 20 1017.9
20181015122032 46 0 0.0 0.0 4.80 0.00 0.00 8 1017.8
20181015121532 46 203 3.0 5.0 4.80 0.00 0.00 4 1017.7
20181015121032 46 226 1.0 5.0 4.80 0.00 0.00 2 1017.7
20181015120532 46 201 5.0 8.0 4.80 0.00 0.00 0 1017.8
20181015120032 46 211 7.0 9.0 4.80 0.00 0.00 0 1017.9
20181015115532 46 210 5.0 8.0 4.80 0.00 0.00 0 1017.7
20181015115032 46 179 6.0 7.0 4.80 0.00 0.00 0 1017.7
20181015114532 47 170 6.0 8.0 4.80 0.00 0.00 0 1017.6
20181015114032 47 191 6.0 8.0 4.80 0.00 0.00 0 1017.8
20181015113532 47 169 6.0 7.0 4.80 0.00 0.00 0 1017.7
20181015113032 47 194 7.0 9.0 4.80 0.00 0.00 0 1017.7
20181015112532 47 179 7.0 9.0 4.80 0.00 0.00 0 1017.7
20181015112033 47 186 6.0 8.0 4.80 0.00 0.00 0 1017.9
20181015111533 47 193 7.0 9.0 4.80 0.00 0.00 0 1017.7
20181015111032 47 173 9.0 10.0 4.80 0.00 0.00 0 1017.7
20181015110532 47 170 8.0 10.0 4.80 0.00 0.00 0 1017.7
20181015110033 47 191 7.0 8.0 4.80 0.00 0.00 0 1017.9
20181015105532 47 173 7.0 9.0 4.80 0.00 0.00 0 1017.8
20181015105033 47 201 7.0 9.0 4.80 0.00 0.00 0 1017.8
20181015104532 47 188 7.0 9.0 4.80 0.00 0.00 0 1017.9
20181015104033 47 210 7.0 9.0 4.80 0.00 0.00 0 1017.8
20181015103533 47 194 7.0 10.0 4.80 0.00 0.00 0 1017.7
20181015103035 47 169 8.0 9.0 4.80 0.00 0.00 0 1017.7
20181015102533 47 180 8.0 10.0 4.80 0.00 0.00 0 1017.5
20181015102033 46 177 8.0 9.0 4.80 0.00 0.00 0 1017.7
20181015101533 46 172 8.0 9.0 4.80 0.00 0.00 0 1017.6
20181015101033 46 184 7.0 8.0 4.80 0.00 0.00 0 1017.7
20181015100533 46 173 7.0 9.0 4.80 0.00 0.00 0 1017.8
20181015100033 46 184 8.0 9.0 4.80 0.00 0.00 0 1018.0
20181015095533 46 169 8.0 9.0 4.80 0.00 0.00 0 1017.9
20181015095033 46 165 8.0 9.0 4.80 0.00 0.00 0 1017.8
20181015094533 46 179 8.0 9.0 4.80 0.00 0.00 0 1017.9
20181015094033 46 167 7.0 9.0 4.80 0.00 0.00 0 1018.3
20181015093533 46 176 8.0 9.0 4.80 0.00 0.00 0 1018.4
20181015093033 46 169 9.0 10.0 4.80 0.00 0.00 0 1018.6
20181015092533 46 174 9.0 10.0 4.80 0.00 0.00 0 1019.1
20181015092033 46 179 9.0 10.0 4.80 0.00 0.00 0 1019.3
20181015091533 46 160 8.0 10.0 4.80 0.00 0.00 0 1019.6
20181015091033 45 162 9.0 11.0 4.80 0.00 0.00 0 1019.5
20181015090533 45 166 10.0 11.0 4.80 0.00 0.00 0 1019.4
20181015090033 46 173 9.0 9.0 4.80 0.00 0.00 0 1019.8
20181015085533 46 169 8.0 9.0 4.80 0.00 0.00 0 1020.1
20181015085033 46 177 8.0 9.0 4.80 0.00 0.00 0 1019.9
20181015084533 46 172 7.0 8.0 4.80 0.00 0.00 0 1020.2
20181015084033 46 180 7.0 9.0 4.80 0.00 0.00 0 1020.3
20181015083533 46 167 8.0 10.0 4.80 0.00 0.00 0 1020.2
20181015083033 45 167 9.0 11.0 4.80 0.00 0.00 0 1019.9
20181015082533 45 160 9.0 11.0 4.80 0.00 0.00 0 1019.8
20181015082033 45 152 10.0 11.0 4.80 0.00 0.00 0 1019.4
20181015081533 45 159 10.0 13.0 4.80 0.00 0.00 0 1019.5
20181015081033 45 163 10.0 12.0 4.80 0.00 0.00 0 1020.1
20181015080534 45 156 10.0 11.0 4.80 0.00 0.00 0 1020.3
20181015080033 45 163 9.0 10.0 4.80 0.00 0.00 0 1020.5
20181015075533 45 166 9.0 10.0 4.80 0.00 0.00 0 1020.7
20181015075033 45 166 9.0 10.0 4.80 0.00 0.00 0 1020.9
20181015074533 45 162 9.0 10.0 4.80 0.00 0.00 0 1020.7
20181015074033 45 159 9.0 10.0 4.80 0.00 0.00 0 1020.8
20181015073533 45 150 9.0 10.0 4.80 0.00 0.00 0 1020.9
20181015073033 45 165 10.0 11.0 4.80 0.00 0.00 0 1020.7
20181015072533 46 172 11.0 13.0 4.80 0.00 0.00 0 1021.0
20181015072034 46 169 10.0 11.0 4.80 0.00 0.00 0 1021.2
20181015071533 46 162 10.0 12.0 4.80 0.00 0.00 0 1021.2
20181015071033 46 156 10.0 12.0 4.80 0.00 0.00 0 1021.2
20181015070533 46 176 10.0 12.0 4.80 0.00 0.00 0 1021.1
20181015070033 46 163 10.0 12.0 4.80 0.00 0.00 0 1021.4
20181015065533 46 165 10.0 12.0 4.80 0.00 0.00 0 1021.2
20181015065033 46 165 10.0 12.0 4.80 0.00 0.00 0 1021.3
20181015064533 46 170 10.0 11.0 4.80 0.00 0.00 0 1021.2
20181015064034 46 162 10.0 12.0 4.80 0.00 0.00 0 1021.3
20181015063534 46 169 11.0 12.0 4.80 0.00 0.00 0 1021.0
20181015063033 45 160 10.0 12.0 4.80 0.00 0.00 0 1021.0
20181015062533 45 163 10.0 11.0 4.80 0.00 0.00 0 1021.2
20181015062033 45 158 10.0 11.0 4.80 0.00 0.00 0 1021.1
20181015061533 45 155 10.0 11.0 4.80 0.00 0.00 0 1021.2
20181015061033 45 162 10.0 11.0 4.80 0.00 0.00 0 1021.4
20181015060533 45 166 9.0 11.0 4.80 0.00 0.00 0 1021.4
20181015060033 45 165 10.0 11.0 4.80 0.00 0.00 0 1021.6
20181015055533 45 166 9.0 10.0 4.80 0.00 0.00 0 1022.0
20181015055033 45 167 9.0 11.0 4.80 0.00 0.00 0 1022.7
20181015054533 45 172 9.0 10.0 4.80 0.00 0.00 0 1022.8
20181015054034 45 158 9.0 10.0 4.80 0.00 0.00 0 1023.2
20181015053534 45 162 9.0 10.0 4.80 0.00 0.00 0 1023.3
20181015053033 45 172 9.0 10.0 4.80 0.00 0.00 0 1023.1
20181015052534 45 173 8.0 9.0 4.80 0.00 0.00 0 1023.2
20181015052033 45 165 9.0 9.0 4.80 0.00 0.00 0 1023.2
20181015051533 45 172 9.0 10.0 4.80 0.00 0.00 0 1023.2
20181015051034 45 166 9.0 10.0 4.80 0.00 0.00 0 1023.3
20181015050533 45 174 9.0 11.0 4.80 0.00 0.00 0 1023.2
20181015050033 45 173 9.0 10.0 4.80 0.00 0.00 0 1023.4
20181015045534 46 181 9.0 10.0 4.80 0.00 0.00 0 1023.5
20181015045033 45 173 8.0 10.0 4.80 0.00 0.00 0 1023.5
20181015044533 45 188 8.0 10.0 4.80 0.00 0.00 0 1023.4
20181015044034 45 183 9.0 11.0 4.80 0.00 0.00 0 1023.4
20181015043533 45 160 9.0 11.0 4.80 0.00 0.00 0 1023.4
20181015043036 45 203 8.0 10.0 4.80 0.00 0.00 0 1023.5
20181015042533 45 181 9.0 11.0 4.80 0.00 0.00 0 1023.5
20181015042034 45 191 8.0 10.0 4.80 0.00 0.00 0 1023.5
20181015041533 44 179 9.0 10.0 4.80 0.00 0.00 0 1023.8
20181015041034 44 180 9.0 10.0 4.80 0.00 0.00 0 1023.7
20181015040533 44 198 8.0 10.0 4.80 0.00 0.00 0 1023.8
20181015040033 44 180 9.0 11.0 4.80 0.00 0.00 0 1023.7
20181015035533 44 176 9.0 11.0 4.80 0.00 0.00 0 1023.8
20181015035033 44 179 9.0 10.0 4.80 0.00 0.00 0 1023.8
20181015034534 44 179 8.0 10.0 4.80 0.00 0.00 0 1023.9
20181015034033 44 188 10.0 11.0 4.80 0.00 0.00 0 1023.8
20181015033533 44 173 10.0 11.0 4.80 0.00 0.00 0 1023.7
20181015033033 44 180 9.0 11.0 4.80 0.00 0.00 0 1023.7
20181015032533 44 179 10.0 11.0 4.80 0.00 0.00 0 1023.6
20181015032033 45 173 10.0 11.0 4.80 0.00 0.00 0 1023.7
20181015031533 45 180 8.0 10.0 4.80 0.00 0.00 0 1023.8
20181015031034 45 210 7.0 10.0 4.80 0.00 0.00 0 1023.9
20181015030534 45 195 8.0 10.0 4.80 0.00 0.00 0 1024.0
20181015030034 45 194 8.0 10.0 4.80 0.00 0.00 0 1024.0
20181015025534 45 198 7.0 9.0 4.80 0.00 0.00 0 1024.1
20181015025035 45 193 7.0 9.0 4.80 0.00 0.00 0 1024.1
20181015024534 45 195 9.0 10.0 4.80 0.00 0.00 0 1024.1
20181015024033 46 207 10.0 10.0 4.80 0.00 0.00 0 1024.1
20181015023534 46 204 10.0 10.0 4.80 0.00 0.00 0 1024.4
20181015023034 46 207 9.0 10.0 4.80 0.00 0.00 0 1024.3
20181015022533 46 200 9.0 10.0 4.80 0.00 0.00 0 1024.2
20181015022033 46 208 9.0 10.0 4.80 0.00 0.00 0 1024.4
20181015021534 46 210 9.0 9.0 4.80 0.00 0.00 0 1024.4
20181015021033 46 200 8.0 9.0 4.80 0.00 0.00 0 1024.1
20181015020535 46 205 8.0 9.0 4.80 0.00 0.00 0 1024.2
20181015020035 46 205 8.0 8.0 4.80 0.00 0.00 0 1024.3
20181015015536 46 211 8.0 9.0 4.80 0.00 0.00 0 1024.2
20181015015034 46 203 9.0 10.0 4.80 0.00 0.00 0 1024.1
20181015014533 46 208 9.0 10.0 4.80 0.00 0.00 0 1024.2
20181015014033 46 208 10.0 11.0 4.80 0.00 0.00 0 1024.4
20181015013535 46 205 10.0 10.0 4.80 0.00 0.00 0 1024.1
20181015013033 46 210 9.0 11.0 4.80 0.00 0.00 0 1024.3
20181015012533 46 210 10.0 11.0 4.80 0.00 0.00 0 1024.5
20181015012034 46 195 11.0 12.0 4.80 0.00 0.00 0 1024.5
20181015011534 46 198 10.0 12.0 4.80 0.00 0.00 0 1024.3
20181015011034 46 210 9.0 11.0 4.80 0.00 0.00 0 1024.5
20181015010534 46 210 8.0 10.0 4.80 0.00 0.00 0 1024.7
20181015010034 46 211 8.0 10.0 4.80 0.00 0.00 0 1024.5
20181015005534 47 208 9.0 10.0 4.80 0.00 0.00 0 1024.6
20181015005034 47 210 9.0 11.0 4.80 0.00 0.00 0 1024.5
20181015004534 47 208 11.0 12.0 4.80 0.00 0.00 0 1024.5
20181015004035 47 205 10.0 12.0 4.80 0.00 0.00 0 1024.3
20181015003534 47 208 9.0 12.0 4.80 0.00 0.00 0 1024.4
20181015003034 47 214 11.0 13.0 4.80 0.00 0.00 0 1024.2
20181015002534 47 210 11.0 12.0 4.80 0.00 0.00 0 1024.1
20181015002034 47 203 7.0 10.0 4.80 0.00 0.00 0 1024.1
20181015001534 48 218 7.0 9.0 4.80 0.00 0.00 0 1024.2
20181015001034 48 211 7.0 9.0 4.80 0.00 0.00 0 1024.1
20181015000535 48 211 7.0 9.0 4.80 0.00 0.00 0 1024.1
20181015000034 48 211 8.0 10.0 4.80 0.00 0.00 0 1024.0
20181014235534 48 207 8.0 10.0 4.80 0.00 0.00 0 1024.0
20181014235034 48 211 7.0 9.0 4.80 0.00 0.00 0 1023.8
20181014234534 48 212 6.0 8.0 4.80 0.00 0.00 0 1023.9
20181014234034 48 228 5.0 7.0 4.80 0.00 0.00 0 1023.9
20181014233534 48 212 5.0 7.0 4.80 0.00 0.00 0 1023.8
20181014233034 48 238 6.0 8.0 4.80 0.00 0.00 0 1023.9
20181014232534 48 214 5.0 6.0 4.80 0.00 0.00 0 1023.8
20181014232034 49 235 5.0 8.0 4.80 0.00 0.00 0 1023.7
20181014231534 49 233 5.0 6.0 4.80 0.00 0.00 0 1023.8
20181014231034 49 238 4.0 6.0 4.80 0.00 0.00 0 1023.7
20181014230535 49 226 5.0 7.0 4.80 0.00 0.00 0 1023.7
20181014230034 49 245 6.0 9.0 4.80 0.00 0.00 0 1023.6
20181014225535 50 221 7.0 10.0 4.80 0.00 0.00 0 1023.7
20181014225034 50 242 6.0 8.0 4.80 0.00 0.00 0 1023.7
20181014224534 50 217 5.0 8.0 4.80 0.00 0.00 0 1023.5
20181014224034 50 236 6.0 8.0 4.80 0.00 0.00 0 1023.5
20181014223535 51 214 5.0 9.0 4.80 0.00 0.00 0 1023.4
20181014223034 51 228 6.0 9.0 4.80 0.00 0.00 0 1023.4
20181014222535 51 194 6.0 11.0 4.80 0.00 0.00 0 1023.4
20181014222035 52 214 6.0 10.0 4.80 0.00 0.00 0 1023.4
20181014221534 52 248 6.0 8.0 4.80 0.00 0.00 0 1023.4
20181014221035 52 233 9.0 13.0 4.80 0.00 0.00 0 1023.5
20181014220534 52 225 9.0 12.0 4.80 0.00 0.00 0 1023.6
20181014220034 53 233 9.0 11.0 4.80 0.00 0.00 0 1023.6
20181014215534 53 207 8.0 13.0 4.80 0.00 0.00 0 1023.5
20181014215034 53 224 7.0 11.0 4.80 0.00 0.00 0 1023.6
20181014214534 53 229 8.0 11.0 4.80 0.00 0.00 0 1023.6
20181014214035 53 236 9.0 12.0 4.80 0.00 0.00 0 1023.6
20181014213535 53 235 11.0 13.0 4.80 0.00 0.00 0 1023.5
20181014213034 54 235 8.0 12.0 4.80 0.00 0.00 0 1023.5
20181014212534 54 253 9.0 13.0 4.80 0.00 0.00 0 1023.7
20181014212034 54 253 10.0 12.0 4.80 0.00 0.00 0 1023.7
20181014211534 53 249 11.0 15.0 4.80 0.00 0.00 0 1023.7
20181014211034 53 257 9.0 12.0 4.80 0.00 0.00 0 1023.8
20181014210534 53 239 7.0 9.0 4.80 0.00 0.00 0 1023.8
20181014210034 53 239 8.0 10.0 4.80 0.00 0.00 0 1023.8
20181014205534 53 246 10.0 13.0 4.80 0.00 0.00 0 1023.9
20181014205035 54 243 13.0 17.0 4.80 0.00 0.00 0 1023.9
20181014204534 54 256 12.0 17.0 4.80 0.00 0.00 0 1024.0
20181014204034 54 243 11.0 17.0 4.80 0.00 0.00 0 1024.1
20181014203534 53 225 9.0 11.0 4.80 0.00 0.00 0 1024.1
20181014203034 53 205 10.0 14.0 4.80 0.00 0.00 0 1024.2
20181014202534 54 232 8.0 12.0 4.80 0.00 0.00 0 1024.2
20181014202034 54 226 10.0 12.0 4.80 0.00 0.00 0 1024.3
20181014201535 54 239 12.0 15.0 4.80 0.00 0.00 0 1024.2
20181014201034 54 246 11.0 15.0 4.80 0.00 0.00 0 1024.3
20181014200535 53 246 13.0 17.0 4.80 0.00 0.00 0 1024.4
20181014200034 53 226 14.0 18.0 4.80 0.00 0.00 0 1024.3
20181014195535 53 240 16.0 20.0 4.80 0.00 0.00 0 1024.3
20181014195035 53 240 13.0 18.0 4.80 0.00 0.00 0 1024.4
20181014193535 54 229 15.0 19.0 4.80 0.00 0.00 0 1024.5
20181014193035 53 246 11.0 19.0 4.80 0.00 0.00 0 1024.6
20181014192535 53 249 17.0 21.0 4.80 0.00 0.00 0 1024.5
20181014192035 54 238 12.0 17.0 4.80 0.00 0.00 0 1024.5
20181014191535 54 222 15.0 21.0 4.80 0.00 0.00 0 1024.5
20181014191035 53 242 13.0 18.0 4.80 0.00 0.00 0 1024.4
20181014190536 54 236 15.0 19.0 4.80 0.00 0.00 0 1024.3